Time,TemperatureF,DewpointF,PressureIn,WindDirection,WindDirectionDegrees,WindSpeedMPH,WindSpeedGustMPH,Humidity,HourlyPrecipIn,Conditions,Clouds,dailyrainin,SoftwareType,DateUTC
2013-06-01 00:06:00,76.2,66.5,30.07,SSW,196,7.0,8.0,72,0.00,,,0.00,Wunderground v.1.15,2013-06-01 04:06:00,
2013-06-01 00:11:00,75.9,66.2,30.07,South,181,8.0,11.0,72,0.00,,,0.00,Wunderground v.1.15,2013-06-01 04:11:00,
2013-06-01 00:16:00,75.8,66.1,30.07,South,186,5.0,8.0,72,0.00,,,0.00,Wunderground v.1.15,2013-06-01 04:16:00,
2013-06-01 00:22:00,75.6,66.3,30.07,SSW,194,6.0,8.0,73,0.00,,,0.00,Wunderground v.1.15,2013-06-01 04:22:00,
2013-06-01 00:28:00,75.5,66.2,30.07,SSW,201,5.0,6.0,73,0.00,,,0.00,Wunderground v.1.15,2013-06-01 04:28:00,
2013-06-01 00:33:00,75.3,66.0,30.07,SSW,209,4.0,5.0,73,0.00,,,0.00,Wunderground v.1.15,2013-06-01 04:33:00,
2013-06-01 00:38:00,75.2,66.3,30.07,South,172,6.0,6.0,74,0.00,,,0.00,Wunderground v.1.15,2013-06-01 04:38:00,
2013-06-01 00:44:00,75.0,66.1,30.07,SSW,192,7.0,7.0,74,0.00,,,0.00,Wunderground v.1.15,2013-06-01 04:44:00,
2013-06-01 00:50:00,74.9,66.1,30.07,SSW,200,5.0,7.0,74,0.00,,,0.00,Wunderground v.1.15,2013-06-01 04:50:00,
2013-06-01 00:55:00,74.8,66.0,30.07,SW,233,4.0,5.0,74,0.00,,,0.00,Wunderground v.1.15,2013-06-01 04:55:00,
2013-06-01 01:00:00,74.6,66.1,30.07,South,183,4.0,7.0,75,0.00,,,0.00,Wunderground v.1.15,2013-06-01 05:00:00,
2013-06-01 01:05:00,74.4,66.0,30.07,SSW,202,4.0,5.0,75,0.00,,,0.00,Wunderground v.1.15,2013-06-01 05:05:00,
2013-06-01 01:11:00,74.2,66.1,30.07,South,186,6.0,7.0,76,0.00,,,0.00,Wunderground v.1.15,2013-06-01 05:11:00,
2013-06-01 01:16:00,74.0,66.0,30.07,South,183,5.0,7.0,76,0.00,,,0.00,Wunderground v.1.15,2013-06-01 05:16:00,
2013-06-01 01:22:00,73.8,66.1,30.07,SSW,207,6.0,7.0,77,0.00,,,0.00,Wunderground v.1.15,2013-06-01 05:22:00,
2013-06-01 01:27:00,73.6,65.9,30.07,South,190,4.0,7.0,77,0.00,,,0.00,Wunderground v.1.15,2013-06-01 05:27:00,
2013-06-01 01:32:00,73.4,65.7,30.07,South,190,4.0,7.0,77,0.00,,,0.00,Wunderground v.1.15,2013-06-01 05:32:00,
2013-06-01 01:38:00,73.2,65.9,30.07,South,178,4.0,6.0,78,0.00,,,0.00,Wunderground v.1.15,2013-06-01 05:38:00,
2013-06-01 01:43:00,73.1,65.8,30.07,South,182,3.0,6.0,78,0.00,,,0.00,Wunderground v.1.15,2013-06-01 05:43:00,
2013-06-01 01:48:00,73.0,66.1,30.07,South,187,4.0,4.0,79,0.00,,,0.00,Wunderground v.1.15,2013-06-01 05:48:00,
2013-06-01 01:53:00,72.8,65.9,30.07,SSW,208,4.0,4.0,79,0.00,,,0.00,Wunderground v.1.15,2013-06-01 05:53:00,
2013-06-01 01:59:00,72.6,66.1,30.07,South,190,5.0,5.0,80,0.00,,,0.00,Wunderground v.1.15,2013-06-01 05:59:00,
2013-06-01 02:04:00,72.4,65.9,30.07,SSW,192,4.0,4.0,80,0.00,,,0.00,Wunderground v.1.15,2013-06-01 06:04:00,
2013-06-01 02:09:00,72.2,65.7,30.07,SSW,198,3.0,4.0,80,0.00,,,0.00,Wunderground v.1.15,2013-06-01 06:09:00,
2013-06-01 02:14:00,72.1,65.9,30.07,SSW,199,2.0,4.0,81,0.00,,,0.00,Wunderground v.1.15,2013-06-01 06:14:00,
2013-06-01 02:19:00,72.0,65.8,30.07,SSW,194,3.0,6.0,81,0.00,,,0.00,Wunderground v.1.15,2013-06-01 06:19:00,
2013-06-01 02:24:00,71.8,65.7,30.07,SSW,194,2.0,4.0,81,0.00,,,0.00,Wunderground v.1.15,2013-06-01 06:24:00,
2013-06-01 02:29:00,71.6,65.8,30.06,SSW,194,2.0,5.0,82,0.00,,,0.00,Wunderground v.1.15,2013-06-01 06:29:00,
2013-06-01 02:34:00,71.4,65.6,30.07,SSW,194,2.0,3.0,82,0.00,,,0.00,Wunderground v.1.15,2013-06-01 06:34:00,
2013-06-01 02:39:00,71.3,65.9,30.07,SSW,193,2.0,4.0,83,0.00,,,0.00,Wunderground v.1.15,2013-06-01 06:39:00,
2013-06-01 02:44:00,71.1,65.7,30.07,SSW,193,3.0,4.0,83,0.00,,,0.00,Wunderground v.1.15,2013-06-01 06:44:00,
2013-06-01 02:50:00,71.0,65.6,30.07,SSW,193,3.0,5.0,83,0.00,,,0.00,Wunderground v.1.15,2013-06-01 06:50:00,
2013-06-01 02:55:00,70.8,65.7,30.07,SSW,193,1.0,4.0,84,0.00,,,0.00,Wunderground v.1.15,2013-06-01 06:55:00,
2013-06-01 03:00:00,70.8,65.7,30.08,SSW,194,2.0,4.0,84,0.00,,,0.00,Wunderground v.1.15,2013-06-01 07:00:00,
2013-06-01 03:05:00,70.6,65.5,30.08,SSW,194,0.0,3.0,84,0.00,,,0.00,Wunderground v.1.15,2013-06-01 07:05:00,
2013-06-01 03:10:00,70.5,65.8,30.08,SSW,194,0.0,3.0,85,0.00,,,0.00,Wunderground v.1.15,2013-06-01 07:10:00,
2013-06-01 03:15:00,70.3,65.6,30.08,SSW,194,0.0,0.0,85,0.00,,,0.00,Wunderground v.1.15,2013-06-01 07:15:00,
2013-06-01 03:20:00,70.1,65.4,30.08,SSW,194,0.0,0.0,85,0.00,,,0.00,Wunderground v.1.15,2013-06-01 07:20:00,
2013-06-01 03:25:00,69.9,65.5,30.08,SSW,194,3.0,4.0,86,0.00,,,0.00,Wunderground v.1.15,2013-06-01 07:25:00,
2013-06-01 03:30:00,69.8,65.4,30.08,SSW,194,4.0,5.0,86,0.00,,,0.00,Wunderground v.1.15,2013-06-01 07:30:00,
2013-06-01 03:35:00,69.6,65.6,30.08,SSW,194,3.0,3.0,87,0.00,,,0.00,Wunderground v.1.15,2013-06-01 07:35:00,
2013-06-01 03:40:00,69.5,65.5,30.07,SSW,194,3.0,5.0,87,0.00,,,0.00,Wunderground v.1.15,2013-06-01 07:40:00,
2013-06-01 03:45:00,69.5,65.5,30.08,SSW,194,2.0,4.0,87,0.00,,,0.00,Wunderground v.1.15,2013-06-01 07:45:00,
2013-06-01 03:50:00,69.4,65.7,30.08,SSW,194,1.0,4.0,88,0.00,,,0.00,Wunderground v.1.15,2013-06-01 07:50:00,
2013-06-01 03:55:00,69.4,65.7,30.08,SSW,194,0.0,2.0,88,0.00,,,0.00,Wunderground v.1.15,2013-06-01 07:55:00,
2013-06-01 04:00:00,69.4,65.4,30.08,SSW,194,0.0,2.0,87,0.00,,,0.00,Wunderground v.1.15,2013-06-01 08:00:00,
2013-06-01 04:05:00,69.2,65.2,30.08,SSW,194,0.0,0.0,87,0.00,,,0.00,Wunderground v.1.15,2013-06-01 08:05:00,
2013-06-01 04:10:00,69.0,65.3,30.08,SSW,194,0.0,0.0,88,0.00,,,0.00,Wunderground v.1.15,2013-06-01 08:10:00,
2013-06-01 04:15:00,68.8,65.1,30.08,SSW,194,0.0,0.0,88,0.00,,,0.00,Wunderground v.1.15,2013-06-01 08:15:00,
2013-06-01 04:20:00,68.6,64.9,30.08,SSW,194,0.0,0.0,88,0.00,,,0.00,Wunderground v.1.15,2013-06-01 08:20:00,
2013-06-01 04:25:00,68.3,64.6,30.08,SSW,194,0.0,0.0,88,0.00,,,0.00,Wunderground v.1.15,2013-06-01 08:25:00,
2013-06-01 04:30:00,68.2,64.8,30.08,SSW,194,0.0,0.0,89,0.00,,,0.00,Wunderground v.1.15,2013-06-01 08:30:00,
2013-06-01 04:35:00,68.2,65.2,30.08,SSW,194,0.0,0.0,90,0.00,,,0.00,Wunderground v.1.15,2013-06-01 08:35:00,
2013-06-01 04:41:00,68.2,65.2,30.08,SSW,194,0.0,0.0,90,0.00,,,0.00,Wunderground v.1.15,2013-06-01 08:41:00,
2013-06-01 04:46:00,68.2,65.2,30.08,SSW,194,3.0,4.0,90,0.00,,,0.00,Wunderground v.1.15,2013-06-01 08:46:00,
2013-06-01 04:51:00,68.2,65.2,30.08,SSW,194,1.0,5.0,90,0.00,,,0.00,Wunderground v.1.15,2013-06-01 08:51:00,
2013-06-01 04:56:00,68.2,65.2,30.08,SSW,194,0.0,3.0,90,0.00,,,0.00,Wunderground v.1.15,2013-06-01 08:56:00,
2013-06-01 05:01:00,68.1,65.1,30.08,SSW,194,0.0,4.0,90,0.00,,,0.00,Wunderground v.1.15,2013-06-01 09:01:00,
2013-06-01 05:06:00,68.0,65.3,30.08,SSW,194,0.0,1.0,91,0.00,,,0.00,Wunderground v.1.15,2013-06-01 09:06:00,
2013-06-01 05:11:00,67.9,65.2,30.08,SSW,194,0.0,1.0,91,0.00,,,0.00,Wunderground v.1.15,2013-06-01 09:11:00,
2013-06-01 05:16:00,67.9,65.2,30.08,SSW,194,3.0,3.0,91,0.00,,,0.00,Wunderground v.1.15,2013-06-01 09:16:00,
2013-06-01 05:21:00,68.0,65.6,30.08,SSW,194,3.0,5.0,92,0.00,,,0.00,Wunderground v.1.15,2013-06-01 09:21:00,
2013-06-01 05:26:00,68.1,65.7,30.08,SSW,192,3.0,6.0,92,0.00,,,0.00,Wunderground v.1.15,2013-06-01 09:26:00,
2013-06-01 05:31:00,68.3,65.9,30.08,SSW,192,1.0,6.0,92,0.00,,,0.00,Wunderground v.1.15,2013-06-01 09:31:00,
2013-06-01 05:36:00,68.4,66.0,30.08,SSW,192,4.0,5.0,92,0.00,,,0.00,Wunderground v.1.15,2013-06-01 09:36:00,
2013-06-01 05:41:00,68.6,66.2,30.09,SSW,201,5.0,7.0,92,0.00,,,0.00,Wunderground v.1.15,2013-06-01 09:41:00,
2013-06-01 05:46:00,68.9,66.5,30.08,SSW,213,5.0,10.0,92,0.00,,,0.00,Wunderground v.1.15,2013-06-01 09:46:00,
2013-06-01 05:51:00,69.2,66.8,30.09,South,184,7.0,10.0,92,0.00,,,0.00,Wunderground v.1.15,2013-06-01 09:51:00,
2013-06-01 05:56:00,69.4,67.0,30.08,SSW,210,4.0,7.0,92,0.00,,,0.00,Wunderground v.1.15,2013-06-01 09:56:00,
2013-06-01 06:01:00,69.5,66.8,30.08,SSW,205,5.0,10.0,91,0.00,,,0.00,Wunderground v.1.15,2013-06-01 10:01:00,
2013-06-01 06:06:00,69.6,66.9,30.08,SW,224,5.0,7.0,91,0.00,,,0.00,Wunderground v.1.15,2013-06-01 10:06:00,
2013-06-01 06:11:00,69.8,67.1,30.08,SW,217,4.0,8.0,91,0.00,,,0.00,Wunderground v.1.15,2013-06-01 10:11:00,
2013-06-01 06:16:00,69.9,67.2,30.09,SSW,200,5.0,6.0,91,0.00,,,0.00,Wunderground v.1.15,2013-06-01 10:16:00,
2013-06-01 06:21:00,70.0,67.3,30.08,SSW,192,5.0,6.0,91,0.00,,,0.00,Wunderground v.1.15,2013-06-01 10:21:00,
2013-06-01 06:26:00,70.1,67.3,30.09,WSW,254,3.0,5.0,91,0.00,,,0.00,Wunderground v.1.15,2013-06-01 10:26:00,
2013-06-01 06:31:00,70.1,67.3,30.09,SW,217,3.0,6.0,91,0.00,,,0.00,Wunderground v.1.15,2013-06-01 10:31:00,
2013-06-01 06:37:00,70.2,67.1,30.09,SW,215,3.0,6.0,90,0.00,,,0.00,Wunderground v.1.15,2013-06-01 10:37:00,
2013-06-01 06:42:00,70.2,67.1,30.09,South,170,2.0,6.0,90,0.00,,,0.00,Wunderground v.1.15,2013-06-01 10:42:00,
2013-06-01 06:47:00,70.2,67.1,30.09,South,174,0.0,5.0,90,0.00,,,0.00,Wunderground v.1.15,2013-06-01 10:47:00,
2013-06-01 06:52:00,70.2,67.1,30.09,SW,223,4.0,6.0,90,0.00,,,0.00,Wunderground v.1.15,2013-06-01 10:52:00,
2013-06-01 06:57:00,70.3,67.2,30.09,SSW,207,3.0,6.0,90,0.00,,,0.00,Wunderground v.1.15,2013-06-01 10:57:00,
2013-06-01 07:02:00,70.3,67.2,30.09,SSW,206,3.0,6.0,90,0.00,,,0.00,Wunderground v.1.15,2013-06-01 11:02:00,
2013-06-01 07:07:00,70.4,67.3,30.09,SSW,205,3.0,5.0,90,0.00,,,0.00,Wunderground v.1.15,2013-06-01 11:07:00,
2013-06-01 07:12:00,70.5,67.4,30.09,SSW,205,4.0,6.0,90,0.00,,,0.00,Wunderground v.1.15,2013-06-01 11:12:00,
2013-06-01 07:17:00,70.6,67.8,30.08,SSW,205,4.0,5.0,91,0.00,,,0.00,Wunderground v.1.15,2013-06-01 11:17:00,
2013-06-01 07:22:00,70.6,67.5,30.08,SSW,204,0.0,5.0,90,0.00,,,0.00,Wunderground v.1.15,2013-06-01 11:22:00,
2013-06-01 07:27:00,70.6,67.5,30.09,SE,139,4.0,5.0,90,0.00,,,0.00,Wunderground v.1.15,2013-06-01 11:27:00,
2013-06-01 07:32:00,70.6,67.8,30.09,SSE,155,5.0,6.0,91,0.00,,,0.00,Wunderground v.1.15,2013-06-01 11:32:00,
2013-06-01 07:38:00,70.7,67.6,30.09,ESE,113,4.0,7.0,90,0.00,,,0.00,Wunderground v.1.15,2013-06-01 11:38:00,
2013-06-01 07:43:00,70.8,67.7,30.09,SSW,198,3.0,7.0,90,0.00,,,0.00,Wunderground v.1.15,2013-06-01 11:43:00,
2013-06-01 07:48:00,70.9,67.8,30.09,South,180,4.0,6.0,90,0.00,,,0.00,Wunderground v.1.15,2013-06-01 11:48:00,
2013-06-01 07:53:00,70.9,67.8,30.09,South,180,3.0,6.0,90,0.00,,,0.00,Wunderground v.1.15,2013-06-01 11:53:00,
2013-06-01 07:58:00,71.0,67.9,30.09,South,175,6.0,8.0,90,0.00,,,0.00,Wunderground v.1.15,2013-06-01 11:58:00,
2013-06-01 08:03:00,71.1,68.3,30.09,South,182,5.0,8.0,91,0.00,,,0.00,Wunderground v.1.15,2013-06-01 12:03:00,
2013-06-01 08:08:00,71.2,68.4,30.09,SSW,209,2.0,5.0,91,0.00,,,0.00,Wunderground v.1.15,2013-06-01 12:08:00,
2013-06-01 08:13:00,71.3,68.2,30.09,SSW,202,2.0,6.0,90,0.00,,,0.00,Wunderground v.1.15,2013-06-01 12:13:00,
2013-06-01 08:18:00,71.5,68.4,30.09,SSW,202,3.0,5.0,90,0.00,,,0.00,Wunderground v.1.15,2013-06-01 12:18:00,
2013-06-01 08:23:00,71.7,68.3,30.09,SSE,167,5.0,8.0,89,0.00,,,0.00,Wunderground v.1.15,2013-06-01 12:23:00,
2013-06-01 08:28:00,71.9,68.5,30.09,SSW,205,7.0,9.0,89,0.00,,,0.00,Wunderground v.1.15,2013-06-01 12:28:00,
2013-06-01 08:33:00,71.9,68.5,30.09,SSW,193,6.0,6.0,89,0.00,,,0.00,Wunderground v.1.15,2013-06-01 12:33:00,
2013-06-01 08:38:00,71.9,68.5,30.09,South,186,6.0,8.0,89,0.00,,,0.00,Wunderground v.1.15,2013-06-01 12:38:00,
2013-06-01 08:43:00,72.2,68.4,30.09,South,189,3.0,5.0,88,0.00,,,0.00,Wunderground v.1.15,2013-06-01 12:43:00,
2013-06-01 08:48:00,72.3,68.2,30.09,South,184,2.0,9.0,87,0.00,,,0.00,Wunderground v.1.15,2013-06-01 12:48:00,
2013-06-01 08:53:00,72.5,68.7,30.09,South,191,4.0,5.0,88,0.00,,,0.00,Wunderground v.1.15,2013-06-01 12:53:00,
2013-06-01 08:58:00,72.7,68.6,30.08,SW,223,2.0,7.0,87,0.00,,,0.00,Wunderground v.1.15,2013-06-01 12:58:00,
2013-06-01 09:03:00,73.0,68.6,30.08,South,178,6.0,6.0,86,0.00,,,0.00,Wunderground v.1.15,2013-06-01 13:03:00,
2013-06-01 09:08:00,73.3,68.9,30.08,South,182,3.0,7.0,86,0.00,,,0.00,Wunderground v.1.15,2013-06-01 13:08:00,
2013-06-01 09:13:00,73.6,68.8,30.08,SW,215,5.0,5.0,85,0.00,,,0.00,Wunderground v.1.15,2013-06-01 13:13:00,
2013-06-01 09:18:00,73.9,68.8,30.08,South,186,7.0,7.0,84,0.00,,,0.00,Wunderground v.1.15,2013-06-01 13:18:00,
2013-06-01 09:23:00,74.2,69.1,30.08,SSW,202,6.0,7.0,84,0.00,,,0.00,Wunderground v.1.15,2013-06-01 13:23:00,
2013-06-01 09:29:00,74.4,68.9,30.08,SSW,194,5.0,8.0,83,0.00,,,0.00,Wunderground v.1.15,2013-06-01 13:29:00,
2013-06-01 09:34:00,74.8,68.9,30.08,South,191,7.0,8.0,82,0.00,,,0.00,Wunderground v.1.15,2013-06-01 13:34:00,
2013-06-01 09:39:00,75.6,69.4,30.08,South,186,13.0,13.0,81,0.00,,,0.00,Wunderground v.1.15,2013-06-01 13:39:00,
2013-06-01 09:44:00,76.0,69.4,30.08,SSW,208,7.0,7.0,80,0.00,,,0.00,Wunderground v.1.15,2013-06-01 13:44:00,
2013-06-01 09:49:00,76.0,69.0,30.08,SW,215,4.0,13.0,79,0.00,,,0.00,Wunderground v.1.15,2013-06-01 13:49:00,
2013-06-01 09:54:00,76.1,69.1,30.08,SW,223,4.0,7.0,79,0.00,,,0.00,Wunderground v.1.15,2013-06-01 13:54:00,
2013-06-01 09:59:00,76.2,69.2,30.08,SSW,209,2.0,10.0,79,0.00,,,0.00,Wunderground v.1.15,2013-06-01 13:59:00,
2013-06-01 10:04:00,75.9,68.9,30.08,SW,218,6.0,8.0,79,0.00,,,0.00,Wunderground v.1.15,2013-06-01 14:04:00,
2013-06-01 10:09:00,75.5,68.9,30.08,SW,224,6.0,9.0,80,0.00,,,0.00,Wunderground v.1.15,2013-06-01 14:09:00,
2013-06-01 10:14:00,75.8,68.8,30.08,SSW,196,6.0,8.0,79,0.00,,,0.00,Wunderground v.1.15,2013-06-01 14:14:00,
2013-06-01 10:19:00,76.3,69.3,30.08,West,261,3.0,11.0,79,0.00,,,0.00,Wunderground v.1.15,2013-06-01 14:19:00,
2013-06-01 10:24:00,76.7,68.9,30.08,South,182,9.0,10.0,77,0.00,,,0.00,Wunderground v.1.15,2013-06-01 14:24:00,
2013-06-01 10:29:00,77.0,69.2,30.08,SSW,202,5.0,13.0,77,0.00,,,0.00,Wunderground v.1.15,2013-06-01 14:29:00,
2013-06-01 10:34:00,77.3,68.8,30.08,SSW,199,5.0,8.0,75,0.00,,,0.00,Wunderground v.1.15,2013-06-01 14:34:00,
2013-06-01 10:39:00,77.3,69.1,30.08,SSW,209,10.0,10.0,76,0.00,,,0.00,Wunderground v.1.15,2013-06-01 14:39:00,
2013-06-01 10:44:00,77.5,68.9,30.08,SSW,203,7.0,10.0,75,0.00,,,0.00,Wunderground v.1.15,2013-06-01 14:44:00,
2013-06-01 10:49:00,77.9,68.5,30.08,SSW,194,5.0,11.0,73,0.00,,,0.00,Wunderground v.1.15,2013-06-01 14:49:00,
2013-06-01 10:54:00,78.6,68.4,30.08,SSW,196,5.0,8.0,71,0.00,,,0.00,Wunderground v.1.15,2013-06-01 14:54:00,
2013-06-01 10:59:00,79.5,68.9,30.08,South,184,6.0,9.0,70,0.00,,,0.00,Wunderground v.1.15,2013-06-01 14:59:00,
2013-06-01 11:04:00,79.7,68.6,30.08,SSW,206,4.0,6.0,69,0.00,,,0.00,Wunderground v.1.15,2013-06-01 15:04:00,
2013-06-01 11:09:00,79.7,68.6,30.08,South,189,7.0,8.0,69,0.00,,,0.00,Wunderground v.1.15,2013-06-01 15:09:00,
2013-06-01 11:14:00,79.7,68.2,30.08,SW,224,5.0,6.0,68,0.00,,,0.00,Wunderground v.1.15,2013-06-01 15:14:00,
2013-06-01 11:19:00,79.5,68.4,30.08,SW,222,4.0,9.0,69,0.00,,,0.00,Wunderground v.1.15,2013-06-01 15:19:00,
2013-06-01 11:24:00,80.1,68.6,30.08,South,181,9.0,12.0,68,0.00,,,0.00,Wunderground v.1.15,2013-06-01 15:24:00,
2013-06-01 11:29:00,80.0,68.5,30.08,South,187,6.0,12.0,68,0.00,,,0.00,Wunderground v.1.15,2013-06-01 15:29:00,
2013-06-01 11:34:00,79.6,68.5,30.07,WSW,250,8.0,10.0,69,0.00,,,0.00,Wunderground v.1.15,2013-06-01 15:34:00,
2013-06-01 11:39:00,79.4,68.8,30.08,SW,215,2.0,10.0,70,0.00,,,0.00,Wunderground v.1.15,2013-06-01 15:39:00,
2013-06-01 11:45:00,79.6,69.8,30.07,SW,224,5.0,9.0,72,0.00,,,0.00,Wunderground v.1.15,2013-06-01 15:45:00,
2013-06-01 11:50:00,80.0,68.9,30.08,South,178,5.0,9.0,69,0.00,,,0.00,Wunderground v.1.15,2013-06-01 15:50:00,
2013-06-01 11:55:00,80.5,69.0,30.07,SSW,195,10.0,10.0,68,0.00,,,0.00,Wunderground v.1.15,2013-06-01 15:55:00,
2013-06-01 12:00:00,80.8,68.8,30.07,SSW,198,3.0,11.0,67,0.00,,,0.00,Wunderground v.1.15,2013-06-01 16:00:00,
2013-06-01 12:05:00,81.3,68.0,30.07,SSW,207,6.0,9.0,64,0.00,,,0.00,Wunderground v.1.15,2013-06-01 16:05:00,
2013-06-01 12:10:00,81.5,68.6,30.07,South,172,12.0,12.0,65,0.00,,,0.00,Wunderground v.1.15,2013-06-01 16:10:00,
2013-06-01 12:15:00,81.4,69.4,30.06,SSW,202,11.0,11.0,67,0.00,,,0.00,Wunderground v.1.15,2013-06-01 16:15:00,
2013-06-01 12:20:00,81.0,68.6,30.07,South,169,9.0,11.0,66,0.00,,,0.00,Wunderground v.1.15,2013-06-01 16:20:00,
2013-06-01 12:25:00,81.1,68.2,30.07,SSW,209,5.0,7.0,65,0.00,,,0.00,Wunderground v.1.15,2013-06-01 16:25:00,
2013-06-01 12:30:00,81.1,67.8,30.06,SSW,198,4.0,13.0,64,0.00,,,0.00,Wunderground v.1.15,2013-06-01 16:30:00,
2013-06-01 12:35:00,81.4,68.5,30.06,SW,234,10.0,11.0,65,0.00,,,0.00,Wunderground v.1.15,2013-06-01 16:35:00,
2013-06-01 12:40:00,81.5,68.6,30.06,SW,217,5.0,13.0,65,0.00,,,0.00,Wunderground v.1.15,2013-06-01 16:40:00,
2013-06-01 12:45:00,81.9,68.1,30.06,SW,217,5.0,7.0,63,0.00,,,0.00,Wunderground v.1.15,2013-06-01 16:45:00,
2013-06-01 12:50:00,82.2,68.3,30.06,South,175,7.0,10.0,63,0.00,,,0.00,Wunderground v.1.15,2013-06-01 16:50:00,
2013-06-01 12:55:00,82.8,68.0,30.06,South,175,9.0,10.0,61,0.00,,,0.00,Wunderground v.1.15,2013-06-01 16:55:00,
2013-06-01 13:00:00,83.0,68.2,30.06,SSW,196,4.0,10.0,61,0.00,,,0.00,Wunderground v.1.15,2013-06-01 17:00:00,
2013-06-01 13:05:00,83.1,68.3,30.06,South,190,7.0,10.0,61,0.00,,,0.00,Wunderground v.1.15,2013-06-01 17:05:00,
2013-06-01 13:10:00,83.1,68.3,30.06,South,182,7.0,10.0,61,0.00,,,0.00,Wunderground v.1.15,2013-06-01 17:10:00,
2013-06-01 13:15:00,83.2,67.4,30.06,West,267,1.0,7.0,59,0.00,,,0.00,Wunderground v.1.15,2013-06-01 17:15:00,
2013-06-01 13:20:00,82.9,68.1,30.06,South,170,6.0,9.0,61,0.00,,,0.00,Wunderground v.1.15,2013-06-01 17:20:00,
2013-06-01 13:25:00,82.9,68.5,30.06,South,175,7.0,8.0,62,0.00,,,0.00,Wunderground v.1.15,2013-06-01 17:25:00,
2013-06-01 13:30:00,83.1,68.7,30.06,WSW,250,6.0,12.0,62,0.00,,,0.00,Wunderground v.1.15,2013-06-01 17:30:00,
2013-06-01 13:35:00,83.5,68.6,30.05,WSW,241,3.0,10.0,61,0.00,,,0.00,Wunderground v.1.15,2013-06-01 17:35:00,
2013-06-01 13:40:00,83.8,68.9,30.05,South,185,5.0,10.0,61,0.00,,,0.00,Wunderground v.1.15,2013-06-01 17:40:00,
2013-06-01 13:45:00,83.9,69.0,30.05,West,260,4.0,6.0,61,0.00,,,0.00,Wunderground v.1.15,2013-06-01 17:45:00,
2013-06-01 13:50:00,84.2,68.8,30.05,South,187,8.0,8.0,60,0.00,,,0.00,Wunderground v.1.15,2013-06-01 17:50:00,
2013-06-01 13:55:00,84.0,68.1,30.05,SSW,205,7.0,8.0,59,0.00,,,0.00,Wunderground v.1.15,2013-06-01 17:55:00,
2013-06-01 14:00:00,83.8,67.4,30.05,SSW,205,5.0,8.0,58,0.00,,,0.00,Wunderground v.1.15,2013-06-01 18:00:00,
2013-06-01 14:05:00,84.1,67.2,30.05,SW,222,3.0,7.0,57,0.00,,,0.00,Wunderground v.1.15,2013-06-01 18:05:00,
2013-06-01 14:10:00,84.0,67.1,30.05,South,172,7.0,10.0,57,0.00,,,0.00,Wunderground v.1.15,2013-06-01 18:10:00,
2013-06-01 14:15:00,84.0,67.6,30.04,South,187,4.0,9.0,58,0.00,,,0.00,Wunderground v.1.15,2013-06-01 18:15:00,
2013-06-01 14:20:00,84.2,67.8,30.04,SW,219,5.0,9.0,58,0.00,,,0.00,Wunderground v.1.15,2013-06-01 18:20:00,
2013-06-01 14:25:00,84.7,67.3,30.03,SW,221,5.0,10.0,56,0.00,,,0.00,Wunderground v.1.15,2013-06-01 18:25:00,
2013-06-01 14:31:00,85.3,67.3,30.04,SW,225,7.0,12.0,55,0.00,,,0.00,Wunderground v.1.15,2013-06-01 18:31:00,
2013-06-01 14:36:00,85.2,66.7,30.03,SSW,213,7.0,9.0,54,0.00,,,0.00,Wunderground v.1.15,2013-06-01 18:36:00,
2013-06-01 14:41:00,85.5,67.0,30.03,South,182,7.0,9.0,54,0.00,,,0.00,Wunderground v.1.15,2013-06-01 18:41:00,
2013-06-01 14:46:00,85.5,67.0,30.03,South,188,7.0,8.0,54,0.00,,,0.00,Wunderground v.1.15,2013-06-01 18:46:00,
2013-06-01 14:51:00,85.9,67.9,30.02,South,186,8.0,12.0,55,0.00,,,0.00,Wunderground v.1.15,2013-06-01 18:51:00,
2013-06-01 14:56:00,86.3,66.0,30.02,South,182,6.0,12.0,51,0.00,,,0.00,Wunderground v.1.15,2013-06-01 18:56:00,
2013-06-01 15:01:00,86.3,66.0,30.02,SSW,192,7.0,12.0,51,0.00,,,0.00,Wunderground v.1.15,2013-06-01 19:01:00,
2013-06-01 15:06:00,86.1,67.0,30.02,South,189,6.0,9.0,53,0.00,,,0.00,Wunderground v.1.15,2013-06-01 19:06:00,
2013-06-01 15:11:00,86.1,67.0,30.02,South,187,6.0,9.0,53,0.00,,,0.00,Wunderground v.1.15,2013-06-01 19:11:00,
2013-06-01 15:16:00,86.7,67.0,30.01,SSE,167,6.0,10.0,52,0.00,,,0.00,Wunderground v.1.15,2013-06-01 19:16:00,
2013-06-01 15:21:00,87.1,67.3,30.02,South,187,8.0,10.0,52,0.00,,,0.00,Wunderground v.1.15,2013-06-01 19:21:00,
2013-06-01 15:26:00,87.0,67.2,30.01,South,176,11.0,12.0,52,0.00,,,0.00,Wunderground v.1.15,2013-06-01 19:26:00,
2013-06-01 15:31:00,87.4,67.6,30.01,South,187,8.0,12.0,52,0.00,,,0.00,Wunderground v.1.15,2013-06-01 19:31:00,
2013-06-01 15:36:00,87.4,67.1,30.01,SSW,207,5.0,13.0,51,0.00,,,0.00,Wunderground v.1.15,2013-06-01 19:36:00,
2013-06-01 15:41:00,87.6,67.2,30.01,South,178,7.0,13.0,51,0.00,,,0.00,Wunderground v.1.15,2013-06-01 19:41:00,
2013-06-01 15:46:00,87.7,67.3,30.01,South,188,9.0,11.0,51,0.00,,,0.00,Wunderground v.1.15,2013-06-01 19:46:00,
2013-06-01 15:51:00,87.2,66.3,30.01,SSW,206,8.0,12.0,50,0.00,,,0.00,Wunderground v.1.15,2013-06-01 19:51:00,
2013-06-01 15:56:00,86.8,66.5,30.01,WSW,238,7.0,10.0,51,0.00,,,0.00,Wunderground v.1.15,2013-06-01 19:56:00,
2013-06-01 16:01:00,86.4,66.7,30.01,SSW,202,6.0,11.0,52,0.00,,,0.00,Wunderground v.1.15,2013-06-01 20:01:00,
2013-06-01 16:06:00,86.7,67.5,30.01,SSW,205,1.0,6.0,53,0.00,,,0.00,Wunderground v.1.15,2013-06-01 20:06:00,
2013-06-01 16:11:00,87.1,67.3,30.01,WSW,238,6.0,7.0,52,0.00,,,0.00,Wunderground v.1.15,2013-06-01 20:11:00,
2013-06-01 16:16:00,86.9,66.6,30.00,SSW,208,4.0,8.0,51,0.00,,,0.00,Wunderground v.1.15,2013-06-01 20:16:00,
2013-06-01 16:21:00,87.2,66.9,30.00,WSW,242,6.0,10.0,51,0.00,,,0.00,Wunderground v.1.15,2013-06-01 20:21:00,
2013-06-01 16:26:00,87.3,67.0,30.00,WSW,237,8.0,12.0,51,0.00,,,0.00,Wunderground v.1.15,2013-06-01 20:26:00,
2013-06-01 16:31:00,87.3,66.4,30.00,SW,229,10.0,14.0,50,0.00,,,0.00,Wunderground v.1.15,2013-06-01 20:31:00,
2013-06-01 16:36:00,86.9,66.6,29.99,WSW,240,4.0,9.0,51,0.00,,,0.00,Wunderground v.1.15,2013-06-01 20:36:00,
2013-06-01 16:41:00,86.8,66.5,30.00,SW,223,4.0,11.0,51,0.00,,,0.00,Wunderground v.1.15,2013-06-01 20:41:00,
2013-06-01 16:46:00,86.7,67.0,30.00,West,263,5.0,7.0,52,0.00,,,0.00,Wunderground v.1.15,2013-06-01 20:46:00,
2013-06-01 16:52:00,86.4,67.2,29.99,WSW,246,3.0,7.0,53,0.00,,,0.00,Wunderground v.1.15,2013-06-01 20:52:00,
2013-06-01 16:57:00,86.5,67.3,29.99,SW,235,3.0,6.0,53,0.00,,,0.00,Wunderground v.1.15,2013-06-01 20:57:00,
2013-06-01 17:02:00,86.5,67.3,29.99,SW,234,6.0,7.0,53,0.00,,,0.00,Wunderground v.1.15,2013-06-01 21:02:00,
2013-06-01 17:07:00,86.8,67.1,29.99,SSW,203,2.0,7.0,52,0.00,,,0.00,Wunderground v.1.15,2013-06-01 21:07:00,
2013-06-01 17:12:00,87.3,67.5,29.99,South,190,7.0,10.0,52,0.00,,,0.00,Wunderground v.1.15,2013-06-01 21:12:00,
2013-06-01 17:17:00,87.6,66.7,29.99,SW,219,4.0,8.0,50,0.00,,,0.00,Wunderground v.1.15,2013-06-01 21:17:00,
2013-06-01 17:22:00,87.6,66.7,29.98,SW,214,4.0,11.0,50,0.00,,,0.00,Wunderground v.1.15,2013-06-01 21:22:00,
2013-06-01 17:27:00,87.5,66.6,29.98,SSW,198,4.0,7.0,50,0.00,,,0.00,Wunderground v.1.15,2013-06-01 21:27:00,
2013-06-01 17:32:00,87.6,67.2,29.98,WSW,248,4.0,7.0,51,0.00,,,0.00,Wunderground v.1.15,2013-06-01 21:32:00,
2013-06-01 17:37:00,87.4,67.1,29.98,South,190,8.0,11.0,51,0.00,,,0.00,Wunderground v.1.15,2013-06-01 21:37:00,
2013-06-01 17:42:00,87.0,66.7,29.98,South,190,6.0,11.0,51,0.00,,,0.00,Wunderground v.1.15,2013-06-01 21:42:00,
2013-06-01 17:47:00,86.6,66.9,29.99,SSW,209,3.0,6.0,52,0.00,,,0.00,Wunderground v.1.15,2013-06-01 21:47:00,
2013-06-01 17:52:00,86.4,66.7,29.98,SSW,208,4.0,6.0,52,0.00,,,0.00,Wunderground v.1.15,2013-06-01 21:52:00,
2013-06-01 17:57:00,86.1,67.5,29.98,SSW,203,2.0,4.0,54,0.00,,,0.00,Wunderground v.1.15,2013-06-01 21:57:00,
2013-06-01 18:02:00,86.3,67.2,29.98,South,180,6.0,7.0,53,0.00,,,0.00,Wunderground v.1.15,2013-06-01 22:02:00,
2013-06-01 18:07:00,86.7,66.4,29.98,WSW,244,3.0,7.0,51,0.00,,,0.00,Wunderground v.1.15,2013-06-01 22:07:00,
2013-06-01 18:12:00,87.2,66.9,29.98,SSW,210,5.0,7.0,51,0.00,,,0.00,Wunderground v.1.15,2013-06-01 22:12:00,
2013-06-01 18:17:00,87.2,66.3,29.97,SSW,211,3.0,6.0,50,0.00,,,0.00,Wunderground v.1.15,2013-06-01 22:17:00,
2013-06-01 18:22:00,87.1,67.3,29.97,WSW,247,1.0,6.0,52,0.00,,,0.00,Wunderground v.1.15,2013-06-01 22:22:00,
2013-06-01 18:27:00,87.2,67.4,29.97,SSW,209,4.0,5.0,52,0.00,,,0.00,Wunderground v.1.15,2013-06-01 22:27:00,
2013-06-01 18:32:00,87.3,66.4,29.97,SSW,209,4.0,6.0,50,0.00,,,0.00,Wunderground v.1.15,2013-06-01 22:32:00,
2013-06-01 18:37:00,87.5,66.6,29.97,SW,220,5.0,8.0,50,0.00,,,0.00,Wunderground v.1.15,2013-06-01 22:37:00,
2013-06-01 18:42:00,87.3,67.0,29.97,SSW,200,6.0,8.0,51,0.00,,,0.00,Wunderground v.1.15,2013-06-01 22:42:00,
2013-06-01 18:47:00,87.4,67.6,29.96,SW,229,1.0,5.0,52,0.00,,,0.00,Wunderground v.1.15,2013-06-01 22:47:00,
2013-06-01 18:52:00,87.2,67.4,29.97,SW,229,0.0,5.0,52,0.00,,,0.00,Wunderground v.1.15,2013-06-01 22:52:00,
2013-06-01 18:57:00,87.1,68.4,29.96,SW,229,0.0,2.0,54,0.00,,,0.00,Wunderground v.1.15,2013-06-01 22:57:00,
2013-06-01 19:02:00,87.1,67.9,29.97,SW,229,1.0,4.0,53,0.00,,,0.00,Wunderground v.1.15,2013-06-01 23:02:00,
2013-06-01 19:07:00,86.9,67.7,29.97,SW,229,1.0,4.0,53,0.00,,,0.00,Wunderground v.1.15,2013-06-01 23:07:00,
2013-06-01 19:12:00,86.6,67.4,29.96,SW,229,0.0,4.0,53,0.00,,,0.00,Wunderground v.1.15,2013-06-01 23:12:00,
2013-06-01 19:14:00,78.2,73.7,30.02,SSW,198,2.0,4.0,86,0.00,,,0.00,Wunderground v.1.15,2013-06-01 23:14:00,
2013-06-01 19:15:00,78.2,73.7,30.02,SSW,198,2.0,4.0,86,0.00,,,0.00,Wunderground v.1.15,2013-06-01 23:15:00,
2013-06-01 19:16:00,78.2,73.7,30.02,SSW,198,3.0,4.0,86,0.00,,,0.00,Wunderground v.1.15,2013-06-01 23:16:00,
2013-06-01 19:17:00,86.3,67.7,29.96,SW,229,4.0,4.0,54,0.00,,,0.00,Wunderground v.1.15,2013-06-01 23:17:00,
2013-06-01 19:18:00,78.2,73.7,30.02,SSW,193,0.0,5.0,86,0.00,,,0.00,Wunderground v.1.15,2013-06-01 23:18:00,
2013-06-01 19:19:00,78.1,73.6,30.02,SSE,152,5.0,5.0,86,0.00,,,0.00,Wunderground v.1.15,2013-06-01 23:19:00,
2013-06-01 19:20:00,78.1,73.6,30.02,SSE,155,5.0,5.0,86,0.00,,,0.00,Wunderground v.1.15,2013-06-01 23:20:00,
2013-06-01 19:21:00,78.1,73.6,30.02,SSE,167,0.0,5.0,86,0.00,,,0.00,Wunderground v.1.15,2013-06-01 23:21:00,
2013-06-01 19:22:00,78.1,73.6,30.02,SSE,167,0.0,5.0,86,0.00,,,0.00,Wunderground v.1.15,2013-06-01 23:22:00,
2013-06-01 19:23:00,85.9,67.3,29.96,SW,229,4.0,4.0,54,0.00,,,0.00,Wunderground v.1.15,2013-06-01 23:23:00,
2013-06-01 19:28:00,85.8,66.7,29.96,SW,219,2.0,6.0,53,0.00,,,0.00,Wunderground v.1.15,2013-06-01 23:28:00,
2013-06-01 19:33:00,85.9,67.9,29.96,SW,219,0.0,6.0,55,0.00,,,0.00,Wunderground v.1.15,2013-06-01 23:33:00,
2013-06-01 19:38:00,85.8,67.8,29.96,SW,219,1.0,4.0,55,0.00,,,0.00,Wunderground v.1.15,2013-06-01 23:38:00,
2013-06-01 19:40:00,77.6,73.4,30.02,South,191,7.0,7.0,87,0.00,,,0.00,Wunderground v.1.15,2013-06-01 23:40:00,
2013-06-01 19:41:00,77.6,73.4,30.02,South,188,4.0,7.0,87,0.00,,,0.00,Wunderground v.1.15,2013-06-01 23:41:00,
2013-06-01 19:42:00,77.5,73.3,30.02,South,189,4.0,7.0,87,0.00,,,0.00,Wunderground v.1.15,2013-06-01 23:42:00,
2013-06-01 19:43:00,85.8,67.2,29.96,SW,216,4.0,6.0,54,0.00,,,0.00,Wunderground v.1.15,2013-06-01 23:43:00,
2013-06-01 19:44:00,77.5,73.3,30.02,South,182,4.0,7.0,87,0.00,,,0.00,Wunderground v.1.15,2013-06-01 23:44:00,
2013-06-01 19:45:00,77.4,73.2,30.03,South,182,1.0,7.0,87,0.00,,,0.00,Wunderground v.1.15,2013-06-01 23:45:00,
2013-06-01 19:47:00,77.4,73.6,30.03,South,190,5.0,7.0,88,0.00,,,0.00,Wunderground v.1.15,2013-06-01 23:47:00,
2013-06-01 19:48:00,85.7,67.1,29.96,SW,215,3.0,5.0,54,0.00,,,0.00,Wunderground v.1.15,2013-06-01 23:48:00,
2013-06-01 19:49:00,77.3,73.5,30.02,South,187,3.0,7.0,88,0.00,,,0.00,Wunderground v.1.15,2013-06-01 23:49:00,
2013-06-01 19:50:00,77.3,73.5,30.02,South,187,4.0,5.0,88,0.00,,,0.00,Wunderground v.1.15,2013-06-01 23:50:00,
2013-06-01 19:51:00,77.2,73.4,30.02,South,171,5.0,5.0,88,0.00,,,0.00,Wunderground v.1.15,2013-06-01 23:51:00,
2013-06-01 19:52:00,77.2,73.4,30.02,South,171,5.0,5.0,88,0.00,,,0.00,Wunderground v.1.15,2013-06-01 23:52:00,
2013-06-01 19:53:00,85.6,67.6,29.96,SW,215,2.0,5.0,55,0.00,,,0.00,Wunderground v.1.15,2013-06-01 23:53:00,
2013-06-01 19:54:00,77.2,73.4,30.02,South,174,5.0,6.0,88,0.00,,,0.00,Wunderground v.1.15,2013-06-01 23:54:00,
2013-06-01 19:55:00,77.2,73.4,30.02,South,174,4.0,6.0,88,0.00,,,0.00,Wunderground v.1.15,2013-06-01 23:55:00,
2013-06-01 19:57:00,77.2,73.4,30.03,SSW,197,3.0,6.0,88,0.00,,,0.00,Wunderground v.1.15,2013-06-01 23:57:00,
2013-06-01 19:58:00,85.4,67.9,29.96,SW,215,2.0,4.0,56,0.00,,,0.00,Wunderground v.1.15,2013-06-01 23:58:00,
2013-06-01 20:03:00,85.3,67.8,29.96,SW,215,2.0,4.0,56,0.00,,,0.00,Wunderground v.1.15,2013-06-02 00:03:00,
2013-06-01 20:08:00,85.1,68.2,29.96,SW,215,3.0,4.0,57,0.00,,,0.00,Wunderground v.1.15,2013-06-02 00:08:00,
2013-06-01 20:10:00,77.1,73.6,30.03,South,180,0.0,1.0,89,0.00,,,0.00,Wunderground v.1.15,2013-06-02 00:10:00,
2013-06-01 20:11:00,77.1,73.6,30.03,South,178,0.0,1.0,89,0.00,,,0.00,Wunderground v.1.15,2013-06-02 00:11:00,
2013-06-01 20:12:00,77.1,73.6,30.03,South,178,0.0,1.0,89,0.00,,,0.00,Wunderground v.1.15,2013-06-02 00:12:00,
2013-06-01 20:13:00,84.7,67.8,29.96,SW,215,3.0,4.0,57,0.00,,,0.00,Wunderground v.1.15,2013-06-02 00:13:00,
2013-06-01 20:14:00,76.9,73.4,30.03,South,178,0.0,1.0,89,0.00,,,0.00,Wunderground v.1.15,2013-06-02 00:14:00,
2013-06-01 20:15:00,76.9,73.4,30.03,SW,221,0.0,1.0,89,0.00,,,0.00,Wunderground v.1.15,2013-06-02 00:15:00,
2013-06-01 20:16:00,76.9,73.4,30.03,SE,143,0.0,1.0,89,0.00,,,0.00,Wunderground v.1.15,2013-06-02 00:16:00,
2013-06-01 20:17:00,76.8,73.3,30.03,ESE,102,0.0,1.0,89,0.00,,,0.00,Wunderground v.1.15,2013-06-02 00:17:00,
2013-06-01 20:18:00,84.3,67.4,29.96,SW,215,3.0,5.0,57,0.00,,,0.00,Wunderground v.1.15,2013-06-02 00:18:00,
2013-06-01 20:19:00,76.7,73.5,30.03,ESE,102,0.0,1.0,90,0.00,,,0.00,Wunderground v.1.15,2013-06-02 00:19:00,
2013-06-01 20:20:00,76.7,73.5,30.03,ESE,102,0.0,0.0,90,0.00,,,0.00,Wunderground v.1.15,2013-06-02 00:20:00,
2013-06-01 20:21:00,76.6,73.4,30.03,ESE,102,0.0,0.0,90,0.00,,,0.00,Wunderground v.1.15,2013-06-02 00:21:00,
2013-06-01 20:22:00,76.6,73.4,30.03,ESE,102,0.0,0.0,90,0.00,,,0.00,Wunderground v.1.15,2013-06-02 00:22:00,
2013-06-01 20:23:00,84.0,67.6,29.95,SW,215,3.0,5.0,58,0.00,,,0.00,Wunderground v.1.15,2013-06-02 00:23:00,
2013-06-01 20:28:00,83.6,67.8,29.95,SW,215,3.0,4.0,59,0.00,,,0.00,Wunderground v.1.15,2013-06-02 00:28:00,
2013-06-01 20:33:00,83.3,67.5,29.95,SW,215,3.0,4.0,59,0.00,,,0.00,Wunderground v.1.15,2013-06-02 00:33:00,
2013-06-01 20:38:00,83.0,67.7,29.95,SW,215,2.0,4.0,60,0.00,,,0.00,Wunderground v.1.15,2013-06-02 00:38:00,
2013-06-01 20:43:00,82.7,67.4,29.95,SW,215,2.0,4.0,60,0.00,,,0.00,Wunderground v.1.15,2013-06-02 00:43:00,
2013-06-01 20:45:00,75.9,73.7,30.03,SSE,159,0.0,0.0,93,0.04,,,0.02,Wunderground v.1.15,2013-06-02 00:45:00,
2013-06-01 20:46:00,75.8,73.6,30.03,SSE,159,0.0,0.0,93,0.04,,,0.02,Wunderground v.1.15,2013-06-02 00:46:00,
2013-06-01 20:47:00,75.8,73.6,30.04,SSE,159,0.0,0.0,93,0.04,,,0.02,Wunderground v.1.15,2013-06-02 00:47:00,
2013-06-01 20:48:00,82.3,67.5,29.95,SW,215,2.0,4.0,61,0.00,,,0.00,Wunderground v.1.15,2013-06-02 00:48:00,
2013-06-01 20:49:00,75.8,73.6,30.04,SSE,159,0.0,0.0,93,0.00,,,0.02,Wunderground v.1.15,2013-06-02 00:49:00,
2013-06-01 20:50:00,75.7,73.5,30.04,SSE,159,0.0,0.0,93,0.00,,,0.02,Wunderground v.1.15,2013-06-02 00:50:00,
2013-06-01 20:51:00,75.7,73.5,30.03,SSE,159,0.0,0.0,93,0.00,,,0.02,Wunderground v.1.15,2013-06-02 00:51:00,
2013-06-01 20:52:00,75.7,73.5,30.03,SSE,159,0.0,0.0,93,0.00,,,0.02,Wunderground v.1.15,2013-06-02 00:52:00,
2013-06-01 20:53:00,82.0,67.2,29.95,SW,215,2.0,4.0,61,0.00,,,0.00,Wunderground v.1.15,2013-06-02 00:53:00,
2013-06-01 20:54:00,75.6,73.4,30.04,SSE,159,0.0,0.0,93,0.00,,,0.02,Wunderground v.1.15,2013-06-02 00:54:00,
2013-06-01 20:55:00,75.6,73.4,30.04,SSE,159,0.0,0.0,93,0.00,,,0.02,Wunderground v.1.15,2013-06-02 00:55:00,
2013-06-01 20:56:00,75.6,73.4,30.04,SSE,159,0.0,0.0,93,0.00,,,0.02,Wunderground v.1.15,2013-06-02 00:56:00,
2013-06-01 20:57:00,75.6,73.4,30.04,SSE,159,0.0,0.0,93,0.00,,,0.02,Wunderground v.1.15,2013-06-02 00:57:00,
2013-06-01 20:58:00,81.8,68.0,29.96,SW,215,0.0,2.0,63,0.00,,,0.00,Wunderground v.1.15,2013-06-02 00:58:00,
2013-06-01 20:59:00,75.6,73.4,30.04,SSE,159,0.0,0.0,93,0.00,,,0.02,Wunderground v.1.15,2013-06-02 00:59:00,
2013-06-01 21:00:00,75.6,73.8,30.04,SSE,159,0.0,0.0,94,0.00,,,0.02,Wunderground v.1.15,2013-06-02 01:00:00,
2013-06-01 21:01:00,75.6,73.8,30.04,SSE,159,0.0,0.0,94,0.00,,,0.02,Wunderground v.1.15,2013-06-02 01:01:00,
2013-06-01 21:02:00,75.6,73.8,30.04,SSE,159,0.0,0.0,94,0.00,,,0.02,Wunderground v.1.15,2013-06-02 01:02:00,
2013-06-01 21:03:00,81.3,68.0,29.95,SW,215,0.0,1.0,64,0.00,,,0.00,Wunderground v.1.15,2013-06-02 01:03:00,
2013-06-01 21:04:00,75.5,73.7,30.04,SSE,162,2.0,4.0,94,0.00,,,0.02,Wunderground v.1.15,2013-06-02 01:04:00,
2013-06-01 21:08:00,80.8,67.5,29.95,SW,215,2.0,3.0,64,0.00,,,0.00,Wunderground v.1.15,2013-06-02 01:08:00,
2013-06-01 21:12:00,75.5,73.7,30.04,SSE,164,5.0,5.0,94,0.00,,,0.02,Wunderground v.1.15,2013-06-02 01:12:00,
2013-06-01 21:13:00,80.5,67.2,29.95,SW,215,1.0,1.0,64,0.00,,,0.00,Wunderground v.1.15,2013-06-02 01:13:00,
2013-06-01 21:14:00,75.5,73.7,30.05,SSE,168,4.0,6.0,94,0.00,,,0.02,Wunderground v.1.15,2013-06-02 01:14:00,
2013-06-01 21:15:00,75.5,73.7,30.05,South,175,6.0,6.0,94,0.00,,,0.02,Wunderground v.1.15,2013-06-02 01:15:00,
2013-06-01 21:18:00,80.3,67.5,29.96,SW,215,2.0,2.0,65,0.00,,,0.00,Wunderground v.1.15,2013-06-02 01:18:00,
2013-06-01 21:23:00,79.9,67.5,29.96,SW,215,0.0,1.0,66,0.00,,,0.00,Wunderground v.1.15,2013-06-02 01:23:00,
2013-06-01 21:28:00,79.5,67.1,29.96,SW,215,0.0,1.0,66,0.00,,,0.00,Wunderground v.1.15,2013-06-02 01:28:00,
2013-06-01 21:33:00,79.1,67.2,29.97,SW,215,0.0,0.0,67,0.00,,,0.00,Wunderground v.1.15,2013-06-02 01:33:00,
2013-06-01 21:34:00,75.2,73.7,30.06,South,180,4.0,6.0,95,0.00,,,0.02,Wunderground v.1.15,2013-06-02 01:34:00,
2013-06-01 21:36:00,75.2,73.7,30.06,South,180,3.0,6.0,95,0.00,,,0.02,Wunderground v.1.15,2013-06-02 01:36:00,
2013-06-01 21:37:00,75.2,73.7,30.06,South,180,3.0,6.0,95,0.00,,,0.02,Wunderground v.1.15,2013-06-02 01:37:00,
2013-06-01 21:38:00,75.2,73.7,30.06,South,180,2.0,6.0,95,0.00,,,0.02,Wunderground v.1.15,2013-06-02 01:38:00,
2013-06-01 21:39:00,78.9,67.0,29.97,SW,215,2.0,3.0,67,0.00,,,0.00,Wunderground v.1.15,2013-06-02 01:39:00,
2013-06-01 21:40:00,75.2,73.7,30.06,South,182,5.0,5.0,95,0.00,,,0.03,Wunderground v.1.15,2013-06-02 01:40:00,
2013-06-01 21:41:00,75.2,73.7,30.06,South,182,4.0,5.0,95,0.00,,,0.03,Wunderground v.1.15,2013-06-02 01:41:00,
2013-06-01 21:42:00,75.2,73.7,30.06,South,182,3.0,5.0,95,0.00,,,0.03,Wunderground v.1.15,2013-06-02 01:42:00,
2013-06-01 21:43:00,75.2,73.7,30.06,South,182,3.0,5.0,95,0.00,,,0.03,Wunderground v.1.15,2013-06-02 01:43:00,
2013-06-01 21:44:00,78.8,66.9,29.98,SW,215,3.0,3.0,67,0.00,,,0.00,Wunderground v.1.15,2013-06-02 01:44:00,
2013-06-01 21:45:00,75.2,73.7,30.06,South,178,5.0,8.0,95,0.00,,,0.03,Wunderground v.1.15,2013-06-02 01:45:00,
2013-06-01 21:48:00,75.1,73.6,30.06,SW,215,9.0,10.0,95,0.00,,,0.03,Wunderground v.1.15,2013-06-02 01:48:00,
2013-06-01 21:49:00,78.9,67.0,29.99,SW,215,4.0,4.0,67,0.00,,,0.00,Wunderground v.1.15,2013-06-02 01:49:00,
2013-06-01 21:54:00,79.0,67.1,29.99,SW,215,0.0,2.0,67,0.00,,,0.00,Wunderground v.1.15,2013-06-02 01:54:00,
2013-06-01 21:59:00,78.9,67.0,30.00,SW,215,3.0,4.0,67,0.00,,,0.00,Wunderground v.1.15,2013-06-02 01:59:00,
2013-06-01 22:04:00,78.9,67.0,30.01,SW,215,3.0,3.0,67,0.00,,,0.00,Wunderground v.1.15,2013-06-02 02:04:00,
2013-06-01 22:09:00,78.9,66.6,30.00,SW,214,4.0,6.0,66,0.00,,,0.00,Wunderground v.1.15,2013-06-02 02:09:00,
2013-06-01 22:14:00,79.1,66.8,30.01,SSW,196,4.0,5.0,66,0.00,,,0.00,Wunderground v.1.15,2013-06-02 02:14:00,
2013-06-01 22:17:00,74.2,71.7,30.07,SW,221,7.0,17.0,92,0.00,,,0.04,Wunderground v.1.15,2013-06-02 02:17:00,
2013-06-01 22:18:00,74.1,71.6,30.07,SSW,204,9.0,17.0,92,0.00,,,0.04,Wunderground v.1.15,2013-06-02 02:18:00,
2013-06-01 22:19:00,79.2,66.9,30.01,SSW,196,6.0,7.0,66,0.00,,,0.00,Wunderground v.1.15,2013-06-02 02:19:00,
2013-06-01 22:22:00,73.8,71.3,30.07,SSW,198,7.0,10.0,92,0.00,,,0.04,Wunderground v.1.15,2013-06-02 02:22:00,
2013-06-01 22:23:00,73.7,71.2,30.07,SW,216,7.0,10.0,92,0.00,,,0.04,Wunderground v.1.15,2013-06-02 02:23:00,
2013-06-01 22:24:00,79.3,67.0,30.01,SSW,213,4.0,5.0,66,0.00,,,0.00,Wunderground v.1.15,2013-06-02 02:24:00,
2013-06-01 22:25:00,73.7,71.2,30.07,SW,214,4.0,10.0,92,0.00,,,0.04,Wunderground v.1.15,2013-06-02 02:25:00,
2013-06-01 22:26:00,73.6,71.1,30.07,SSW,202,4.0,10.0,92,0.00,,,0.04,Wunderground v.1.15,2013-06-02 02:26:00,
2013-06-01 22:27:00,73.5,71.4,30.07,SSW,211,6.0,10.0,93,0.00,,,0.04,Wunderground v.1.15,2013-06-02 02:27:00,
2013-06-01 22:28:00,73.5,71.4,30.07,SSW,201,12.0,12.0,93,0.00,,,0.04,Wunderground v.1.15,2013-06-02 02:28:00,
2013-06-01 22:29:00,79.3,66.5,30.01,South,187,5.0,12.0,65,0.00,,,0.00,Wunderground v.1.15,2013-06-02 02:29:00,
2013-06-01 22:30:00,73.3,71.2,30.07,South,170,9.0,9.0,93,0.00,,,0.04,Wunderground v.1.15,2013-06-02 02:30:00,
2013-06-01 22:31:00,73.3,71.2,30.06,WSW,237,10.0,10.0,93,0.00,,,0.04,Wunderground v.1.15,2013-06-02 02:31:00,
2013-06-01 22:32:00,73.3,71.2,30.07,SSW,203,8.0,10.0,93,0.00,,,0.04,Wunderground v.1.15,2013-06-02 02:32:00,
2013-06-01 22:33:00,73.2,71.1,30.07,SSW,198,6.0,10.0,93,0.00,,,0.04,Wunderground v.1.15,2013-06-02 02:33:00,
2013-06-01 22:34:00,79.3,66.5,30.01,SSW,201,6.0,10.0,65,0.00,,,0.00,Wunderground v.1.15,2013-06-02 02:34:00,
2013-06-01 22:35:00,73.1,71.0,30.06,SSW,207,4.0,10.0,93,0.00,,,0.04,Wunderground v.1.15,2013-06-02 02:35:00,
2013-06-01 22:36:00,73.1,71.0,30.06,SSW,209,7.0,10.0,93,0.00,,,0.04,Wunderground v.1.15,2013-06-02 02:36:00,
2013-06-01 22:37:00,73.1,71.0,30.06,SSW,202,6.0,10.0,93,0.00,,,0.04,Wunderground v.1.15,2013-06-02 02:37:00,
2013-06-01 22:38:00,73.0,71.2,30.07,SSW,201,6.0,10.0,94,0.00,,,0.04,Wunderground v.1.15,2013-06-02 02:38:00,
2013-06-01 22:39:00,79.3,66.5,30.02,SSW,198,6.0,13.0,65,0.00,,,0.00,Wunderground v.1.15,2013-06-02 02:39:00,
2013-06-01 22:40:00,73.0,71.2,30.07,SSW,199,5.0,6.0,94,0.00,,,0.04,Wunderground v.1.15,2013-06-02 02:40:00,
2013-06-01 22:41:00,72.9,71.1,30.07,SSW,193,5.0,7.0,94,0.00,,,0.04,Wunderground v.1.15,2013-06-02 02:41:00,
2013-06-01 22:42:00,72.9,71.1,30.07,WSW,240,7.0,7.0,94,0.00,,,0.04,Wunderground v.1.15,2013-06-02 02:42:00,
2013-06-01 22:43:00,72.9,71.1,30.07,SSW,208,8.0,8.0,94,0.00,,,0.04,Wunderground v.1.15,2013-06-02 02:43:00,
2013-06-01 22:44:00,79.2,66.4,30.02,SSW,205,6.0,7.0,65,0.00,,,0.00,Wunderground v.1.15,2013-06-02 02:44:00,
2013-06-01 22:48:00,72.8,71.0,30.06,SSW,198,3.0,8.0,94,0.00,,,0.04,Wunderground v.1.15,2013-06-02 02:48:00,
2013-06-01 22:49:00,79.1,66.3,30.03,South,186,10.0,11.0,65,0.00,,,0.00,Wunderground v.1.15,2013-06-02 02:49:00,
2013-06-01 22:50:00,72.7,70.9,30.07,SW,221,7.0,7.0,94,0.00,,,0.04,Wunderground v.1.15,2013-06-02 02:50:00,
2013-06-01 22:52:00,72.6,70.8,30.07,SSW,209,8.0,10.0,94,0.00,,,0.04,Wunderground v.1.15,2013-06-02 02:52:00,
2013-06-01 22:53:00,72.6,70.8,30.07,South,173,8.0,10.0,94,0.00,,,0.04,Wunderground v.1.15,2013-06-02 02:53:00,
2013-06-01 22:54:00,79.0,66.7,30.02,SSW,194,9.0,9.0,66,0.00,,,0.00,Wunderground v.1.15,2013-06-02 02:54:00,
2013-06-01 22:55:00,72.5,70.7,30.07,SSW,207,6.0,10.0,94,0.00,,,0.04,Wunderground v.1.15,2013-06-02 02:55:00,
2013-06-01 22:57:00,72.4,70.6,30.06,SSW,196,5.0,10.0,94,0.00,,,0.04,Wunderground v.1.15,2013-06-02 02:57:00,
2013-06-01 22:59:00,78.9,66.6,30.02,South,183,8.0,12.0,66,0.00,,,0.00,Wunderground v.1.15,2013-06-02 02:59:00,
2013-06-01 23:01:00,72.4,70.6,30.06,South,190,6.0,8.0,94,0.00,,,0.04,Wunderground v.1.15,2013-06-02 03:01:00,
2013-06-01 23:02:00,72.4,70.6,30.06,SSW,193,5.0,8.0,94,0.00,,,0.04,Wunderground v.1.15,2013-06-02 03:02:00,
2013-06-01 23:03:00,72.3,70.5,30.06,SSW,192,5.0,8.0,94,0.00,,,0.04,Wunderground v.1.15,2013-06-02 03:03:00,
2013-06-01 23:04:00,78.8,66.5,30.02,SSW,193,6.0,9.0,66,0.00,,,0.00,Wunderground v.1.15,2013-06-02 03:04:00,
2013-06-01 23:05:00,72.3,70.5,30.06,South,178,4.0,10.0,94,0.00,,,0.04,Wunderground v.1.15,2013-06-02 03:05:00,
2013-06-01 23:07:00,72.2,70.4,30.06,South,177,0.0,10.0,94,0.00,,,0.04,Wunderground v.1.15,2013-06-02 03:07:00,
2013-06-01 23:08:00,72.2,70.4,30.05,South,177,4.0,10.0,94,0.00,,,0.04,Wunderground v.1.15,2013-06-02 03:08:00,
2013-06-01 23:09:00,78.8,66.5,30.03,South,187,5.0,10.0,66,0.00,,,0.00,Wunderground v.1.15,2013-06-02 03:09:00,
2013-06-01 23:10:00,72.2,70.4,30.06,South,177,5.0,5.0,94,0.00,,,0.04,Wunderground v.1.15,2013-06-02 03:10:00,
2013-06-01 23:11:00,72.2,70.4,30.06,South,177,4.0,5.0,94,0.00,,,0.04,Wunderground v.1.15,2013-06-02 03:11:00,
2013-06-01 23:12:00,72.2,70.4,30.06,South,182,4.0,6.0,94,0.00,,,0.04,Wunderground v.1.15,2013-06-02 03:12:00,
2013-06-01 23:14:00,78.7,66.4,30.02,SSW,192,8.0,11.0,66,0.00,,,0.00,Wunderground v.1.15,2013-06-02 03:14:00,
2013-06-01 23:15:00,72.2,70.4,30.06,South,182,4.0,6.0,94,0.00,,,0.04,Wunderground v.1.15,2013-06-02 03:15:00,
2013-06-01 23:16:00,72.2,70.4,30.06,South,182,4.0,6.0,94,0.00,,,0.04,Wunderground v.1.15,2013-06-02 03:16:00,
2013-06-01 23:17:00,72.2,70.4,30.06,South,182,3.0,6.0,94,0.00,,,0.04,Wunderground v.1.15,2013-06-02 03:17:00,
2013-06-01 23:18:00,72.1,70.3,30.06,South,182,4.0,6.0,94,0.00,,,0.04,Wunderground v.1.15,2013-06-02 03:18:00,
2013-06-01 23:19:00,78.5,66.2,30.02,SSW,196,5.0,14.0,66,0.00,,,0.00,Wunderground v.1.15,2013-06-02 03:19:00,
2013-06-01 23:20:00,72.1,70.3,30.06,South,182,2.0,4.0,94,0.00,,,0.04,Wunderground v.1.15,2013-06-02 03:20:00,
2013-06-01 23:21:00,72.1,70.3,30.06,South,182,2.0,5.0,94,0.00,,,0.04,Wunderground v.1.15,2013-06-02 03:21:00,
2013-06-01 23:22:00,72.1,70.3,30.06,South,182,3.0,5.0,94,0.00,,,0.04,Wunderground v.1.15,2013-06-02 03:22:00,
2013-06-01 23:23:00,72.1,70.3,30.05,South,182,4.0,5.0,94,0.00,,,0.04,Wunderground v.1.15,2013-06-02 03:23:00,
2013-06-01 23:24:00,78.4,66.1,30.02,SSW,205,5.0,12.0,66,0.00,,,0.00,Wunderground v.1.15,2013-06-02 03:24:00,
2013-06-01 23:25:00,72.0,70.2,30.06,South,182,4.0,5.0,94,0.00,,,0.04,Wunderground v.1.15,2013-06-02 03:25:00,
2013-06-01 23:26:00,72.1,70.3,30.05,South,182,3.0,5.0,94,0.00,,,0.04,Wunderground v.1.15,2013-06-02 03:26:00,
2013-06-01 23:27:00,72.0,70.2,30.05,South,182,3.0,6.0,94,0.00,,,0.04,Wunderground v.1.15,2013-06-02 03:27:00,
2013-06-01 23:29:00,78.3,66.0,30.02,SSW,201,8.0,12.0,66,0.00,,,0.00,Wunderground v.1.15,2013-06-02 03:29:00,
2013-06-01 23:30:00,72.0,70.2,30.05,South,182,1.0,3.0,94,0.00,,,0.04,Wunderground v.1.15,2013-06-02 03:30:00,
2013-06-01 23:31:00,72.0,70.2,30.05,South,182,2.0,3.0,94,0.00,,,0.04,Wunderground v.1.15,2013-06-02 03:31:00,
2013-06-01 23:32:00,72.0,70.2,30.05,South,182,3.0,5.0,94,0.00,,,0.04,Wunderground v.1.15,2013-06-02 03:32:00,
2013-06-01 23:33:00,71.9,70.1,30.05,South,182,2.0,5.0,94,0.00,,,0.04,Wunderground v.1.15,2013-06-02 03:33:00,
2013-06-01 23:34:00,78.1,66.2,30.02,SSW,200,6.0,9.0,67,0.00,,,0.00,Wunderground v.1.15,2013-06-02 03:34:00,
2013-06-01 23:35:00,71.9,70.1,30.05,South,182,3.0,5.0,94,0.00,,,0.04,Wunderground v.1.15,2013-06-02 03:35:00,
2013-06-01 23:36:00,71.9,70.1,30.05,South,182,2.0,5.0,94,0.00,,,0.04,Wunderground v.1.15,2013-06-02 03:36:00,
2013-06-01 23:38:00,71.9,70.1,30.05,South,182,2.0,5.0,94,0.00,,,0.04,Wunderground v.1.15,2013-06-02 03:38:00,
2013-06-01 23:39:00,77.9,66.1,30.02,South,177,10.0,10.0,67,0.00,,,0.00,Wunderground v.1.15,2013-06-02 03:39:00,
2013-06-01 23:40:00,71.9,70.1,30.05,South,182,3.0,3.0,94,0.00,,,0.04,Wunderground v.1.15,2013-06-02 03:40:00,
2013-06-01 23:41:00,71.8,70.0,30.05,South,182,2.0,3.0,94,0.00,,,0.04,Wunderground v.1.15,2013-06-02 03:41:00,
2013-06-01 23:42:00,71.8,70.0,30.05,South,182,2.0,3.0,94,0.00,,,0.04,Wunderground v.1.15,2013-06-02 03:42:00,
2013-06-01 23:43:00,71.8,70.0,30.05,South,182,0.0,3.0,94,0.00,,,0.04,Wunderground v.1.15,2013-06-02 03:43:00,
2013-06-01 23:44:00,77.7,66.3,30.01,SSW,194,7.0,9.0,68,0.00,,,0.00,Wunderground v.1.15,2013-06-02 03:44:00,
2013-06-01 23:45:00,71.8,70.3,30.05,South,182,0.0,3.0,95,0.00,,,0.04,Wunderground v.1.15,2013-06-02 03:45:00,
2013-06-01 23:46:00,71.8,70.3,30.05,South,182,0.0,3.0,95,0.00,,,0.04,Wunderground v.1.15,2013-06-02 03:46:00,
2013-06-01 23:47:00,71.8,70.3,30.06,South,182,0.0,3.0,95,0.00,,,0.04,Wunderground v.1.15,2013-06-02 03:47:00,
2013-06-01 23:48:00,71.8,70.3,30.05,South,182,0.0,3.0,95,0.00,,,0.04,Wunderground v.1.15,2013-06-02 03:48:00,
2013-06-01 23:49:00,77.4,66.0,30.01,SSW,204,7.0,12.0,68,0.00,,,0.00,Wunderground v.1.15,2013-06-02 03:49:00,
2013-06-01 23:50:00,71.7,70.2,30.06,South,182,0.0,1.0,95,0.00,,,0.04,Wunderground v.1.15,2013-06-02 03:50:00,
2013-06-01 23:51:00,71.7,70.2,30.05,South,182,0.0,1.0,95,0.00,,,0.04,Wunderground v.1.15,2013-06-02 03:51:00,
2013-06-01 23:52:00,71.7,70.2,30.05,South,182,0.0,1.0,95,0.00,,,0.00,Wunderground v.1.15,2013-06-02 03:52:00,
2013-06-01 23:53:00,71.7,70.2,30.05,South,182,0.0,1.0,95,0.00,,,0.00,Wunderground v.1.15,2013-06-02 03:53:00,
2013-06-01 23:54:00,77.3,66.3,30.01,SSW,213,7.0,8.0,69,0.00,,,0.00,Wunderground v.1.15,2013-06-02 03:54:00,
2013-06-01 23:55:00,71.7,70.2,30.06,South,182,0.0,1.0,95,0.00,,,0.00,Wunderground v.1.15,2013-06-02 03:55:00,
2013-06-01 23:56:00,71.6,70.1,30.06,South,182,0.0,1.0,95,0.00,,,0.00,Wunderground v.1.15,2013-06-02 03:56:00,
2013-06-01 23:57:00,71.6,70.1,30.06,South,182,0.0,1.0,95,0.00,,,0.00,Wunderground v.1.15,2013-06-02 03:57:00,
2013-06-01 23:58:00,71.6,70.1,30.06,South,182,0.0,1.0,95,0.00,,,0.00,Wunderground v.1.15,2013-06-02 03:58:00,
2013-06-01 23:59:00,77.1,66.1,30.01,SSW,213,13.0,14.0,69,0.00,,,0.00,Wunderground v.1.15,2013-06-02 03:59:00,